Location: Усть-Лабинск
(45.2178°N, 39.6897°E)
Time: 22:54:11
(UTC+03:00)

ISS - Visible Passes

Search period start: 13 April 2026 00:00
Search period end: 23 April 2026 00:00
Orbit: 416 x 424 km, 51.6° (Epoch: 13 April)

Date Brightness Start Highest point End Pass type
(mag) Time Alt. Az. Time Alt. Az. Time Alt. Az.
16 Apr -0.9 04:52:50 10° SSE 04:53:55 11° SE 04:55:00 10° ESE visible
18 Apr -2.1 04:52:38 10° SSW 04:55:35 29° SE 04:58:33 10° ENE visible
19 Apr -1.5 04:06:10 11° S 04:08:21 18° SE 04:10:45 10° E visible
20 Apr -1.1 03:20:44 11° SE 03:21:09 11° SE 03:22:17 10° ESE visible
20 Apr -3.6 04:54:05 10° SW 04:57:26 74° SSE 05:00:49 10° ENE visible
21 Apr -3.1 04:08:11 21° SSW 04:10:04 46° SE 04:13:20 10° ENE visible
22 Apr -2.4 03:22:36 29° SE 03:22:45 29° SE 03:25:43 10° ENE visible
